Home   Weather   Scottsdale   Past weeks

Flag for USA Past Weather in Scottsdale, Arizona, USA — Yesterday and Last 2 Weeks

Now
47 °F

Clear.


Feels Like: 47 °F
Forecast: 46 / 60 °F
Wind: No wind

Location: Scottsdale Airport

Current Time: Jan 17, 2017 at 2:12:41 am

Latest Report: Jan 17, 2017 at 12:53 am


Visibility: 10 mi

Pressure: 30.02 "Hg

Humidity: 83%

Dew Point: 42 °F

Location of ScottsdaleLocation

Past Weather in Scottsdale — Graph

°F

Scottsdale Temperature Yesterday

Maximum temperature yesterday: 60 °F (at 1:53 pm)
Minimum temperature yesterday: 48 °F (at 11:53 pm)
Average temperature yesterday: 54 °F

High & Low Weather Summary for the Past Weeks

 TemperatureHumidityPressure
High73 °F (Jan 8, 3:53 pm)96% (Jan 15, 3:53 am)30.33 "Hg (Jan 15, 3:53 am)
Low42 °F (Jan 7, 7:53 am)25% (Jan 7, 2:53 pm)29.79 "Hg (Jan 6, 12:53 am)
Average56 °F62%30.02 "Hg
* Reported Jan 2 12:53 am — Jan 17 12:53 am, Scottsdale, Weather by CustomWeather, © 2017

Note: Actual official high and low records may vary slightly from our data, if they occured in-between our weather recording intervals... More about our weather records

Advertising

Scottsdale Weather History for the Previous 24 Hours

Scroll right to see more
 ConditionsComfort  
Time TempWeatherWind HumidityBarometerVisibility
12:53 am
Tue, Jan 17
47 °FClear.No wind83%30.02 "Hg10 mi
11:53 pm
Mon, Jan 16
48 °FClear.No wind80%30.03 "Hg10 mi
10:53 pm51 °FClear.No wind71%30.03 "Hg10 mi
9:53 pm53 °FClear.6 mph64%30.03 "Hg10 mi
8:53 pm53 °FClear.3 mph66%30.02 "Hg10 mi
7:53 pm56 °FClear.No wind58%30.01 "Hg10 mi
6:53 pm57 °FClear.No wind55%30.00 "Hg10 mi
5:53 pm58 °FClear.3 mph54%29.99 "Hg10 mi
4:53 pm60 °FSunny.5 mph47%29.97 "Hg10 mi
3:53 pm60 °FPassing clouds.3 mph44%29.96 "Hg10 mi
2:53 pm60 °FSunny.9 mph47%29.96 "Hg10 mi
1:53 pm60 °FSunny.6 mph49%29.97 "Hg10 mi
12:53 pm57 °FScattered clouds.7 mph62%29.99 "Hg10 mi
12:35 pm58 °FPartly sunny.7 mph58%30.03 "Hg10 mi
11:53 am57 °FCloudy.3 mph64%30.02 "Hg10 mi
10:53 am56 °FMore clouds than sun.6 mph70%30.04 "Hg10 mi
10:08 am55 °FPartly sunny.5 mph74%30.07 "Hg10 mi
9:37 am54 °FScattered clouds.3 mph80%30.06 "Hg10 mi
8:53 am52 °FBroken clouds.6 mph86%30.02 "Hg10 mi
7:53 am52 °FOvercast.No wind86%30.00 "Hg10 mi
7:37 am51 °FMostly cloudy.No wind89%30.03 "Hg10 mi
6:53 am52 °FOvercast.No wind83%29.99 "Hg10 mi
5:53 am52 °FMostly cloudy.3 mph83%29.98 "Hg10 mi
5:08 am52 °FOvercast.3 mph83%30.01 "Hg10 mi
4:38 am53 °FMostly cloudy.No wind83%30.00 "Hg10 mi
4:07 am52 °FMostly cloudy.No wind89%30.01 "Hg10 mi
2:53 am52 °FPassing clouds.No wind89%29.99 "Hg10 mi
2:17 am52 °FMostly cloudy.No wind86%30.02 "Hg10 mi
Weather by CustomWeather, © 2017

See weather overviewHow to use our weather pages